Regional Weather Roundup
Issued by NWS

Home | Current Version | Previous Version | Text Only | Print | Product List | Glossary Off
Versions: 1 2 3 4 5 6 7 8 9 10 11 12 13 14 15 16 17 18 19 20 21 22 23 24 25 26 27 28 29 30 31 32 33 34 35 36 37 38 39 40 41 42 43 44 45 46 47 48 49 50

000
ASUS43 KFSD 100602
RWRSD

WEATHER ROUNDUP FOR SOUTH DAKOTA
NATIONAL WEATHER SERVICE SIOUX FALLS SD
1200 AM CST WED FEB 10 2016

NOTE: "FAIR" INDICATES FEW OR NO CLOUDS BELOW 12,000 FEET WITH NO
SIGNIFICANT WEATHER AND/OR OBSTRUCTIONS TO VISIBILITY.


SDZ001>005-009-010-012>017-100700-
NORTHWEST AND NORTH CENTRAL SOUTH DAKOTA

CITY           SKY/WX    TMP DP  RH WIND       PRES   REMARKS
BUFFALO          N/A     35  27  72 W12       29.90F WCI  27
FAITH            N/A     32  23  69 S10       29.96F WCI  24
MOBRIDGE       CLOUDY    32  23  69 SE6       29.98F WCI  26
$$

SDZ012>016-024>037-041>051-057-063-072>074-100700-
SOUTHWEST AND SOUTH CENTRAL SOUTH DAKOTA

CITY           SKY/WX    TMP DP  RH WIND       PRES   REMARKS
RAPID CTY ARPT CLEAR     30  24  78 NW3       30.00F
PIERRE         CLOUDY    31  24  75 CALM      30.02F
CUSTER         CLEAR     40  22  48 NW10G20   30.06F
ELLSWORTH AFB  CLEAR     31  26  78 W6        29.98F WCI  26
PHILIP         CLEAR     30  26  85 CALM      30.00F
PINE RIDGE     CLEAR     33  27  78 W6        30.07S WCI  28
WINNER         CLOUDY    37  25  61 CALM      30.04F
$$

SDZ004>011-016>023-039-040-100700-
NORTHEAST SOUTH DAKOTA

CITY           SKY/WX    TMP DP  RH WIND       PRES   REMARKS
ABERDEEN       CLOUDY    20  12  71 E10       30.11S WCI   9
WATERTOWN      CLOUDY    16   8  71 E5        30.10S WCI   9
BROOKINGS      CLOUDY    17  10  74 E5        30.09F WCI  10
SISSETON         N/A     12   6  77 NE7       30.17R WCI   1
$$

SDZ017-020-022-023-036>040-048>070-100700-
SOUTHEAST SOUTH DAKOTA

CITY           SKY/WX    TMP DP  RH WIND       PRES   REMARKS
SIOUX FALLS    CLOUDY    20  11  68 SE5       30.12F WCI  13
HURON          CLOUDY    27  19  72 S9        30.07F WCI  18
MITCHELL       CLOUDY    27  19  72 S9        30.08F WCI  18
YANKTON        CLOUDY    23  16  74 SE6       30.13F WCI  16
$$

ABBREVIATIONS USED IN REMARKS
   TC - TEMPERATURE IN CELSIUS
  WCI - WIND CHILL INDEX
   HX - HEAT INDEX
  VSB - VISIBILITY




USA.gov is the U.S. government's official web portal to all federal, state and local government web resources and services.